Home > Time Zones > World Clock > Weather > Ghana > Accra > Past weeks

Flag for Ghana Weather past 2 weeks in Accra, Ghana

Now
82 °F

Passing clouds.


Feels Like: 92 °F
Forecast: N/A
Wind: 12 mph from Southwest

Location: Accra Airport

Current Time: Mar 28, 2015 at 10:45:53 PM

Latest Report: Mar 28, 2015 at 10:00 PM


Visibility: N/A

Pressure: 29.92 "Hg

Humidity: 89%

Dew point: 79 °F

Location of AccraLocation

Historic Weather in Accra — Graph

°F

Accra temperature yesterday

Maximum temperature yesterday: 90 °F (at 1:00 PM)
Minimum temperature yesterday: 79 °F (at 4:57 AM)
Average temperature yesterday: 84 °F

Past Weeks' High & Low Weather Summary

 TemperatureHumidityPressure
High93 °F (Mar 15, 12:00 PM)100% (Mar 16, 12:01 AM)29.98 "Hg (Mar 16, 12:01 AM)
Low70 °F (Mar 16, 12:01 AM)53% (Mar 19, 1:00 PM)29.68 "Hg (Mar 15, 3:00 PM)
Average83 °F81%29.82 "Hg
* Reported Mar 13 9:00 PM — Mar 28 9:00 PM, Accra, Weather by CustomWeather, © 2015

Note: Actual official high and low records may vary slightly from our data, if they occured in-between our weather recording intervals... More about our weather records

Advertising

Accra weather history for previous 24 hours

 ConditionsComfort  
Time TempWeatherWind HumidityBarometerVisibility
9:00 PM
Sat, Mar 28
82 °FPassing clouds.14 mph84%29.92 "HgN/A
8:00 PM82 °FClear.14 mph84%29.89 "Hg10 mi
7:00 PM82 °FPassing clouds.15 mph84%29.89 "HgN/A
6:00 PM84 °FPassing clouds.15 mph79%29.86 "HgN/A
5:00 PM84 °FScattered clouds.15 mph79%29.83 "HgN/A
3:57 PM86 °FPassing clouds.17 mph75%29.83 "HgN/A
2:50 PM86 °FScattered clouds.16 mph79%29.83 "HgN/A
1:52 PM86 °FClear.17 mph75%29.86 "HgN/A
1:06 PM86 °FPartly sunny.17 mph75%29.86 "HgN/A
8:57 AM82 °FPassing clouds.10 mph84%29.92 "HgN/A
8:00 AM81 °FPassing clouds.9 mph89%29.92 "HgN/A
6:58 AM79 °FPassing clouds.9 mph89%29.92 "HgN/A
5:54 AM79 °FClear.6 mph89%29.89 "Hg10 mi
3:00 AM81 °FClear.6 mph89%29.89 "Hg10 mi
1:01 AM81 °FPassing clouds.8 mph89%29.92 "HgN/A
11:48 PM
Fri, Mar 27
82 °FPassing clouds.6 mph84%29.95 "HgN/A
10:57 PM82 °FPassing clouds.8 mph84%29.98 "HgN/A
Weather by CustomWeather, © 2015

See weather overviewHow to use our weather pages